[[{"header":{"parameterUnit":"m.s-1","parameterCategory":1,"la1":30.2991,"la2":30.254,"lo1":-89.0895,"lo2":-89.0444,"dy":0.0017,"dx":0.0017,"nx":28,"ny":28,"refTime":"2025-12-13T03:00:00:Z","depth":0,"parameterNumber":2,"parameterNumberName":"U-component_of_WINDS"},"data":[0,0,0,0,0,0,0,0,0,0,0,0,0,0,0,0,0,0,0,0,0,0,0,0,0,0,0,0,0,0,0,0,0,0,0,0,0,0,0,0,0,0,0,0,0,0,0,0,0,0,0,0,0,0,0,0,0,0,-1.3654,-1.3654,0,-1.3683,-1.3683,-1.3683,-1.3653,-1.3651,-1.365,-1.3649,-1.3679,-1.3681,-1.3683,0,0,0,0,0,0,0,0,0,0,0,0,0,-1.3572,-1.3574,-1.3654,-1.3654,-1.3655,-1.3683,-1.3683,-1.3683,-1.3653,-1.3651,-1.365,-1.3649,-1.3678,-1.3681,-1.3683,0,0,0,0,0,0,0,0,0,0,0,0,0,-1.3605,-1.3575,-1.3654,-1.3643,-1.3642,-1.3682,-1.3683,-1.3683,-1.3653,-1.3651,-1.365,-1.3648,-1.3678,-1.368,-1.3683,-1.3736,0,0,-1.3692,-1.3693,0,0,0,0,0,0,0,0,-1.3603,-1.3608,-1.3644,-1.3644,-1.3643,-1.3662,-1.3665,-1.3701,-1.3654,-1.3649,-1.3649,-1.3647,-1.3675,-1.3678,-1.3687,-1.3737,-1.3739,-1.3692,-1.3694,-1.3695,-1.3696,0,0,0,0,0,0,0,-1.3601,-1.3607,-1.3665,-1.3645,-1.3644,-1.3636,-1.3639,-1.3672,-1.3671,-1.3649,-1.3647,-1.3651,-1.3674,-1.3684,-1.3688,-1.3739,-1.3692,-1.3694,-1.3696,-1.3697,-1.3833,-1.3835,0,0,0,0,0,0,-1.36,-1.3605,-1.3664,-1.3666,-1.3618,-1.3639,-1.3642,-1.3658,-1.3671,-1.3671,-1.3652,-1.3649,-1.368,-1.3684,-1.3688,-1.3751,-1.3695,-1.3698,-1.3699,-1.3831,-1.3833,-1.3835,0,0,0,0,0,0,-1.3598,-1.3606,-1.3663,-1.3635,-1.3642,-1.3642,-1.366,-1.3659,-1.3669,-1.3673,-1.3673,-1.3663,-1.3679,-1.3684,-1.3724,-1.3751,-1.3699,-1.3701,-1.3829,-1.3832,-1.3834,-1.3876,0,0,0,0,0,0,-1.3596,-1.3605,-1.3626,-1.3636,-1.3643,-1.3699,-1.3662,-1.3661,-1.3674,-1.3671,-1.3683,-1.3684,-1.3678,-1.372,-1.3727,-1.3754,-1.3704,-1.3826,-1.383,-1.3833,-1.3872,-1.388,-1.3887,0,0,0,0,0,-1.3593,-1.3637,-1.3627,-1.3634,-1.3669,-1.37,-1.3705,-1.3698,-1.3677,-1.3697,-1.3699,-1.3683,-1.3747,-1.3724,-1.3732,-1.3761,-1.3825,-1.3829,-1.3833,-1.3869,-1.3879,-1.3886,0,0,0,0,0,0,-1.363,-1.3638,-1.3627,-1.3675,-1.3687,-1.3695,-1.3721,-1.3708,-1.3727,-1.3723,-1.3713,-1.3716,-1.3758,-1.3763,-1.3738,-1.3812,-1.3782,-1.3788,-1.3807,-1.3816,-1.3823,-1.3821,-1.3706,0,0,0,0,0,-1.3644,-1.3669,-1.3674,-1.3716,-1.3722,-1.372,-1.3734,-1.3727,-1.374,-1.3745,-1.375,-1.3763,-1.3785,-1.3801,-1.3822,-1.3872,-1.3874,-1.3896,-1.3903,-1.3909,-1.3914,-1.394,-1.395,-1.3849,-1.3849,-1.3849,0,0,-1.3673,-1.368,-1.3696,-1.3723,-1.3732,-1.3758,-1.3725,-1.3754,-1.3773,-1.3749,-1.3787,-1.3791,-1.3805,-1.385,-1.387,-1.3855,-1.3942,-1.3914,-1.3919,-1.3921,-1.3946,-1.3955,-1.3964,-1.3852,-1.3852,-1.3851,0,0,-1.3738,-1.3746,-1.3781,-1.379,-1.3804,-1.3802,-1.381,-1.382,-1.3822,-1.3859,-1.3841,-1.3864,-1.3903,-1.3913,-1.3924,-1.3991,-1.3977,-1.3998,-1.4036,-1.4062,-1.407,-1.4077,-1.4101,-1.4109,-1.4004,-1.4004,-1.4004,0,-1.3772,-1.3811,-1.3801,-1.3831,-1.3843,-1.3822,-1.3857,-1.3866,-1.3886,-1.3895,-1.3878,-1.3927,-1.3934,-1.3981,-1.3997,-1.4006,-1.4016,-1.3997,-1.4069,-1.4076,-1.4083,-1.4105,-1.4114,-1.4006,-1.4006,-1.4006,-1.4005,0,-1.3852,-1.3878,-1.3905,-1.3924,-1.3939,-1.3972,-1.3967,-1.3983,-1.3974,-1.3974,-1.4012,-1.402,-1.4042,-1.4053,-1.4045,-1.4098,-1.4089,-1.4071,-1.4041,-1.4095,-1.4116,-1.4125,-1.401,-1.4009,-1.4008,-1.4008,0,0,-1.3943,-1.3955,-1.3965,-1.3973,-1.3985,-1.4006,-1.4037,-1.4058,-1.4072,-1.4086,-1.4112,-1.4145,-1.4128,-1.414,-1.4132,-1.4155,-1.4207,-1.4134,-1.4134,-1.4148,-1.4266,-1.428,-1.429,-1.4197,-1.4199,-1.42,-1.4265,0,-1.4009,-1.4063,-1.4054,-1.4106,-1.4131,-1.411,-1.4137,-1.4147,-1.4147,-1.4168,-1.4168,-1.4191,-1.4167,-1.4174,-1.4195,-1.4197,-1.4231,-1.4192,-1.4221,-1.4223,-1.4219,-1.4301,-1.4316,-1.4377,-1.4273,-1.4275,-1.4276,0,-1.4093,-1.4109,-1.4164,-1.4171,-1.4181,-1.4206,-1.4224,-1.4244,-1.4254,-1.4253,-1.4265,-1.4254,-1.4284,-1.4253,-1.4295,-1.4268,-1.4279,-1.4282,-1.4284,-1.4287,-1.4253,-1.4307,-1.4396,-1.4405,-1.4288,-1.4287,-1.4287,0,-1.4154,-1.419,-1.4227,-1.4234,-1.4244,-1.4261,-1.4266,-1.4275,-1.4288,-1.4304,-1.4312,-1.4331,-1.4342,-1.4356,-1.435,-1.4328,-1.4393,-1.4361,-1.4392,-1.4393,-1.4408,-1.4407,-1.45,-1.4414,-1.4414,-1.4414,-1.4414,0,-1.4229,-1.4263,-1.4254,-1.4277,-1.4314,-1.4304,-1.4341,-1.4343,-1.4351,-1.4374,-1.4356,-1.4378,-1.4368,-1.4388,-1.4383,-1.4418,-1.4423,-1.4423,-1.4421,-1.4425,-1.4425,-1.4433,-1.4428,-1.4416,-1.4416,-1.4415,-1.4415,0,-1.4304,-1.43,-1.4338,-1.4344,-1.4346,-1.4373,-1.4378,-1.4399,-1.4397,-1.4426,-1.4432,-1.4429,-1.4452,-1.4447,-1.4473,-1.4469,-1.4513,-1.4506,-1.451,-1.4508,-1.4539,-1.4537,-1.4642,-1.4655,-1.456,-1.4561,-1.4561,0,-1.4353,-1.4378,-1.4386,-1.44,-1.4406,-1.4428,-1.4441,-1.4431,-1.4445,-1.4458,-1.4478,-1.4499,-1.4516,-1.4554,-1.4554,-1.4574,-1.4567,-1.4602,-1.457,-1.4572,-1.4568,-1.4566,-1.4569,-1.4609,-1.461,-1.4611,-1.4612,0,-1.4439,-1.4435,-1.4454,-1.4472,-1.4488,-1.4501,-1.4513,-1.4526,-1.4516,-1.4533,-1.4556,-1.4569,-1.4594,-1.4616,-1.4633,-1.4638,-1.4624,-1.4622,-1.463,-1.4634,-1.4635,-1.4635,-1.4528,-1.462,-1.4619,-1.4618,-1.4618,-1.4618,-1.4503,-1.4524,-1.4533,-1.4554,-1.4562,-1.4573,-1.4593,-1.4593,-1.4612,-1.4632,-1.4625,-1.4651,-1.466,-1.4682,-1.4688,-1.4709,-1.4695,-1.4707,-1.471,-1.4714,-1.4718,-1.4631,-1.4712,-1.4712,-1.4711,-1.4711,-1.4711,0,-1.4588,-1.4592,-1.4612,-1.4629,-1.4646,-1.463,-1.4642,-1.4657,-1.468,-1.469,-1.4706,-1.4732,-1.4753,-1.4754,-1.4773,-1.4789,-1.4783,-1.4794,-1.4793,-1.4794,-1.4728,-1.472,-1.4799,-1.4799,-1.4799,-1.4799,-1.4799,-1.4799,-1.4635,-1.467,-1.4667,-1.4706,-1.4709,-1.4735,-1.4743,-1.4753,-1.4761,-1.4791,-1.4807,-1.4808,-1.4813,-1.4832,-1.485,-1.485,-1.4858,-1.4872,-1.4869,-1.4808,-1.4799,-1.4791,-1.4782,-1.4874,-1.4874,-1.4934,-1.4934,-1.4935]},{"header":{"parameterUnit":"m.s-1","parameterCategory":1,"la1":30.2991,"la2":30.254,"lo1":-89.0895,"lo2":-89.0444,"dy":0.0017,"dx":0.0017,"nx":28,"ny":28,"refTime":"2025-12-13T03:00:00:Z","depth":0,"parameterNumber":3,"parameterNumberName":"V-component_of_WINDS"},"data":[0,0,0,0,0,0,0,0,0,0,0,0,0,0,0,0,0,0,0,0,0,0,0,0,0,0,0,0,0,0,0,0,0,0,0,0,0,0,0,0,0,0,0,0,0,0,0,0,0,0,0,0,0,0,0,0,0,0,-8.9335,-8.9337,0,-8.9459,-8.946,-8.9462,-8.9386,-8.9382,-8.9379,-8.9375,-8.9494,-8.9501,-8.9507,0,0,0,0,0,0,0,0,0,0,0,0,0,-8.9027,-8.9033,-8.9335,-8.9337,-8.9338,-8.9459,-8.9461,-8.9462,-8.9387,-8.9382,-8.9378,-8.9374,-8.9492,-8.95,-8.9508,0,0,0,0,0,0,0,0,0,0,0,0,0,-8.9157,-8.9035,-8.9335,-8.9315,-8.9315,-8.9459,-8.9461,-8.9463,-8.9387,-8.9382,-8.9377,-8.9372,-8.949,-8.9499,-8.9509,-8.9676,0,0,-8.9539,-8.9543,0,0,0,0,0,0,0,0,-8.915,-8.9168,-8.9317,-8.9317,-8.9317,-8.9402,-8.9395,-8.9534,-8.9389,-8.936,-8.9375,-8.9369,-8.9467,-8.9479,-8.9513,-8.9682,-8.9687,-8.9539,-8.9545,-8.955,-8.9552,0,0,0,0,0,0,0,-8.9141,-8.9162,-8.9384,-8.9319,-8.9319,-8.9298,-8.9311,-8.9421,-8.9442,-8.9362,-8.9357,-8.9373,-8.9466,-8.9504,-8.9516,-8.9689,-8.9539,-8.9548,-8.9554,-8.9558,-9.0003,-9.0009,0,0,0,0,0,0,-8.9134,-8.9156,-8.938,-8.9388,-8.9219,-8.9308,-8.9322,-8.938,-8.944,-8.9445,-8.9377,-8.9369,-8.949,-8.9504,-8.9519,-8.9722,-8.9549,-8.9559,-8.9564,-8.9997,-9.0004,-9.0011,0,0,0,0,0,0,-8.9128,-8.9155,-8.9375,-8.927,-8.9297,-8.9319,-8.9384,-8.9385,-8.9423,-8.9452,-8.9455,-8.9413,-8.9486,-8.9506,-8.9639,-8.9724,-8.9563,-8.9572,-8.999,-8.9999,-9.0008,-9.0126,0,0,0,0,0,0,-8.9119,-8.9153,-8.9218,-8.9273,-8.9303,-8.9495,-8.939,-8.9391,-8.9441,-8.9431,-8.9486,-8.949,-8.9484,-8.9625,-8.9649,-8.9735,-8.9579,-8.9982,-8.9994,-9.0005,-9.0114,-9.0138,-9.0158,0,0,0,0,0,-8.9109,-8.9244,-8.9222,-8.925,-8.9385,-8.95,-8.9517,-8.9509,-8.9448,-8.9513,-8.9532,-8.9488,-8.9711,-8.9639,-8.9665,-8.9756,-8.9977,-8.9991,-9.0004,-9.0105,-9.0133,-9.0157,0,0,0,0,0,0,-8.9196,-8.9251,-8.9227,-8.9384,-8.9439,-8.9487,-8.9568,-8.9539,-8.9609,-8.9597,-8.9581,-8.9595,-8.9734,-8.9758,-8.9677,-8.9922,-8.9834,-8.9854,-8.9902,-8.9929,-8.9951,-8.9942,-8.9588,0,0,0,0,0,-8.9234,-8.9325,-8.9367,-8.9502,-8.9531,-8.9546,-8.9595,-8.9585,-8.9639,-8.966,-8.9689,-8.9741,-8.9823,-8.9877,-8.9954,-9.0117,-9.0129,-9.0193,-9.0214,-9.0232,-9.0249,-9.0339,-9.0368,-9.0055,-9.0055,-9.0055,0,0,-8.9313,-8.9354,-8.9412,-8.9521,-8.9561,-8.9655,-8.9565,-8.9666,-8.9735,-8.9675,-8.9804,-8.9827,-8.9884,-9.0034,-9.0101,-9.0058,-9.0338,-9.0249,-9.0263,-9.027,-9.0356,-9.0385,-9.0412,-9.0064,-9.0063,-9.0061,0,0,-8.9504,-8.9544,-8.9663,-8.9706,-8.9771,-8.978,-8.9808,-8.9862,-8.9877,-9.0006,-8.9964,-9.0044,-9.0185,-9.0229,-9.0269,-9.048,-9.0443,-9.0505,-9.0619,-9.0707,-9.0731,-9.0753,-9.083,-9.0857,-9.0522,-9.0522,-9.0523,0,-8.9593,-8.9734,-8.9726,-8.9833,-8.9882,-8.9836,-8.9955,-8.9997,-9.0082,-9.0116,-9.0067,-9.0246,-9.028,-9.0441,-9.0493,-9.0527,-9.0558,-9.0499,-9.0729,-9.0751,-9.0771,-9.0844,-9.0872,-9.053,-9.0529,-9.0528,-9.0527,0,-8.9841,-8.9939,-9.0027,-9.0115,-9.0173,-9.0285,-9.0294,-9.0354,-9.0339,-9.0354,-9.0487,-9.0528,-9.0613,-9.065,-9.0635,-9.0809,-9.0781,-9.0731,-9.0642,-9.0808,-9.0876,-9.0904,-9.054,-9.0538,-9.0535,-9.0534,0,0,-9.0089,-9.0174,-9.0206,-9.0247,-9.0315,-9.039,-9.05,-9.0587,-9.064,-9.07,-9.0792,-9.0914,-9.0869,-9.0915,-9.0905,-9.0982,-9.1149,-9.0922,-9.0923,-9.0964,-9.1345,-9.1383,-9.1416,-9.1124,-9.113,-9.1134,-9.134,0,-9.0286,-9.0482,-9.048,-9.066,-9.0751,-9.071,-9.0806,-9.0858,-9.0874,-9.0952,-9.0969,-9.1057,-9.099,-9.1018,-9.1093,-9.1113,-9.1225,-9.1098,-9.1209,-9.1213,-9.1197,-9.1451,-9.1491,-9.1684,-9.1367,-9.1371,-9.1375,0,-9.0541,-9.0615,-9.0806,-9.0865,-9.0903,-9.0989,-9.107,-9.1146,-9.1203,-9.121,-9.1264,-9.1242,-9.1352,-9.1261,-9.1413,-9.1327,-9.1372,-9.1389,-9.1396,-9.1406,-9.1304,-9.1469,-9.1745,-9.1775,-9.1416,-9.1413,-9.141,0,-9.0706,-9.0852,-9.0986,-9.1021,-9.1092,-9.1154,-9.1186,-9.1239,-9.1292,-9.1362,-9.1396,-9.1477,-9.1521,-9.1583,-9.1583,-9.1516,-9.1737,-9.1645,-9.1745,-9.1746,-9.1794,-9.1791,-9.2082,-9.1822,-9.1821,-9.1821,-9.182,0,-9.0926,-9.1045,-9.1061,-9.1144,-9.1276,-9.1271,-9.1401,-9.1426,-9.1475,-9.156,-9.1527,-9.1608,-9.1603,-9.1684,-9.1684,-9.1811,-9.183,-9.1838,-9.1837,-9.1842,-9.1841,-9.1872,-9.1859,-9.1828,-9.1827,-9.1825,-9.1824,0,-9.1132,-9.1148,-9.1291,-9.1348,-9.1365,-9.146,-9.1507,-9.1585,-9.16,-9.1709,-9.1734,-9.1756,-9.185,-9.1857,-9.1964,-9.1964,-9.2119,-9.2102,-9.2101,-9.2098,-9.2198,-9.2189,-9.252,-9.2563,-9.2274,-9.2276,-9.2279,0,-9.1272,-9.1364,-9.1432,-9.1489,-9.1525,-9.1616,-9.1672,-9.1671,-9.173,-9.1805,-9.1873,-9.1965,-9.2039,-9.2191,-9.2215,-9.2297,-9.2283,-9.2393,-9.2295,-9.2298,-9.2286,-9.2281,-9.2291,-9.2412,-9.2415,-9.2418,-9.242,0,-9.152,-9.1525,-9.1608,-9.1695,-9.1763,-9.1831,-9.1893,-9.1941,-9.1947,-9.2015,-9.2113,-9.217,-9.2283,-9.2374,-9.2455,-9.2485,-9.2455,-9.2451,-9.2479,-9.2485,-9.2482,-9.2487,-9.2154,-9.2444,-9.2441,-9.2439,-9.2438,-9.2437,-9.1698,-9.1779,-9.1841,-9.1935,-9.1983,-9.2043,-9.212,-9.2147,-9.2229,-9.2323,-9.2316,-9.2425,-9.2481,-9.2588,-9.2625,-9.2709,-9.2671,-9.271,-9.2721,-9.2731,-9.2742,-9.2468,-9.2723,-9.2722,-9.2722,-9.2721,-9.272,0,-9.1946,-9.1985,-9.2072,-9.2163,-9.2238,-9.2205,-9.2274,-9.2337,-9.2435,-9.2491,-9.2566,-9.2679,-9.2768,-9.2801,-9.2888,-9.2948,-9.2937,-9.2971,-9.2967,-9.2975,-9.277,-9.2739,-9.298,-9.298,-9.298,-9.298,-9.2979,-9.2979,-9.2084,-9.2219,-9.2231,-9.2389,-9.2426,-9.2535,-9.2578,-9.2633,-9.2679,-9.2808,-9.2884,-9.2905,-9.2953,-9.3043,-9.3123,-9.313,-9.3164,-9.3205,-9.3206,-9.3015,-9.2989,-9.2964,-9.2934,-9.3212,-9.3213,-9.3404,-9.3406,-9.3407]}]]